Vertical_Velocity
-1 0 -1 -2 -1 -0 1 0 0 1 0 0 1 1 -1 -1 -0 -2 0 0 0 1 1 -0 -1 -0 -3 -0 -1 0 -1 -0 -1 -1 -2 0 -0 -1 -1 -0 -1 -1 -1
2 0 -0 -1 -1 -0 1 -0 -0 0 1 1 2 -0 -2 0 1 -1 -2 -0 1 1 1 0 -2 -1 -1 -1 -1 -2 -0 -0 -2 -1 -2 -1 1 -0 -0 -1 -1 1 -1
-0 1 -1 -2 -2 -1 -1 1 0 1 0 1 1 1 4 3 0 -0 -2 -1 0 1 1 0 -2 -1 -1 -1 -1 -1 -0 -0 -1 -1 -1 -1 -1 -1 -1 -0 -0 -0 -0
2 2 0 -2 -0 -1 -1 -0 0 -2 1 1 1 0 5 3 -1 -1 0 -0 -1 1 0 1 -0 0 -1 -0 -2 -0 -1 -1 -1 -2 -0 -1 -1 -0 0 1 -1 -1 -1
-0 2 0 -1 -1 -0 -0 -0 0 0 0 1 1 1 -1 2 0 -2 1 1 -1 -1 -2 2 0 -0 0 -0 -1 -0 -1 -1 -1 -1 -1 -2 -1 -0 -1 -1 -1 -2 -2
2 0 0 -0 -1 0 1 -0 -1 -1 -0 -0 1 1 1 -0 2 1 1 -0 -0 -0 -2 1 -1 -1 -1 -0 0 0 0 -0 -2 -1 -1 -1 -2 -1 -1 -1 0 -1 -1
-1 0 -0 -1 -0 1 1 -1 -0 -1 1 -1 0 0 1 1 1 1 -0 3 1 0 -1 -0 -2 -1 -1 -0 -1 -1 -0 0 0 -0 0 -2 -1 -1 -1 -1 -0 -1 -1
2 3 -0 -0 -0 1 1 -1 0 -2 2 -1 0 0 0 0 -1 0 1 0 2 -1 -0 -0 -1 -0 -1 -0 0 -1 -0 -0 -0 0 0 -0 -1 -1 -0 -1 -1 -1 -1
0 2 -1 -1 -1 1 0 1 -2 2 2 0 -1 2 1 -2 -1 0 0 -1 -1 -1 -0 -0 0 -1 -0 0 0 0 -1 -1 -1 -1 -1 0 -0 -1 -1 -1 -1 -1 0
1 3 2 0 -2 1 -1 -1 -1 -0 3 2 0 2 1 -1 -1 -3 -0 0 -1 -1 1 0 0 -1 -1 -1 0 -1 -1 -1 -1 -1 -2 -2 -2 -1 -1 -2 -2 -2 -2
5 4 5 7 -3 -0 -0 -2 -2 0 2 1 -1 -0 3 1 -1 -1 -2 -2 -0 -2 -2 -1 0 1 0 -1 -1 2 -0 -1 -1 -2 -1 -1 -1 -1 -2 -0 -1 -1 -1
4 6 5 9 0 1 4 -2 1 -3 -1 2 -2 -1 2 -0 -1 -0 -0 -0 -0 1 -1 -0 -0 1 -0 -1 -1 -1 1 1 -1 -0 -1 -1 0 -0 -1 -0 -0 -1 -2
7 5 4 -1 -0 1 5 -0 -0 0 0 2 -1 -1 -1 2 -0 1 0 1 0 1 1 1 1 0 1 0 -0 1 -0 -0 -1 -0 -1 -1 -1 -0 -0 -1 -1 0 2
7 6 11 1 3 -2 3 6 -1 2 1 5 0 2 2 1 1 2 1 -0 1 -0 2 -0 1 2 1 1 1 -0 -1 -1 -0 0 -0 -1 -1 -1 -0 -1 -2 -2 -0
-20 4 -10 -1 2 2 -2 -0 7 5 -1 2 1 1 3 2 -0 1 1 -1 1 -1 -0 -1 -2 -1 0 1 1 0 -0 -1 -1 -0 -0 1 0 0 -1 -2 -0 -1 -1
8 -15 -23 -25 -4 -1 2 -4 -0 2 0 3 2 4 1 2 2 4 3 1 1 -0 -0 -0 -1 -1 -2 -0 -1 1 2 1 0 -0 -1 -1 0 -1 -0 -2 -2 0 3
-9 -18 17 18 -6 -20 -1 -3 3 -8 -6 1 6 0 3 2 1 3 5 3 -0 1 -1 1 1 0 -2 -1 -0 -0 -0 1 1 1 1 -0 -1 -1 1 1 1 -3 1
-28 3 -9 21 -4 -12 0 -18 -5 2 -1 2 10 1 3 4 -3 -1 3 4 3 4 0 -2 0 2 0 2 -1 1 0 1 0 0 0 -1 -0 2 3 -0 1 -1 -1
-2 -11 15 10 -2 0 -6 -22 -7 -11 -1 -5 -0 -3 1 3 6 2 3 5 0 -1 5 1 1 1 -0 -0 0 0 2 2 1 1 -1 -0 -2 -2 -1 3 -1 0 -1
0 5 6 -4 1 -8 -2 -23 -17 -11 -16 -17 1 -2 4 0 2 1 3 3 2 5 4 5 2 -0 4 2 -3 -0 -1 -1 0 -0 -0 1 -1 -2 -2 1 -1 -0 -0
4 7 -5 -7 -1 -5 3 6 -9 8 -5 -12 2 5 6 8 -1 1 8 2 4 6 9 -0 -3 4 4 3 2 2 2 1 0 -1 1 1 2 4 -3 -8 0 0 2
-14 -6 4 -6 9 -9 -25 -2 1 7 3 7 -7 15 17 11 4 1 4 4 2 3 4 3 6 2 2 2 1 -3 -4 7 6 4 2 -2 2 2 -2 1 -2 -1 -1
16 0 2 2 16 17 7 3 10 1 -2 24 -6 71 0 13 18 14 15 14 15 5 16 17 10 5 5 2 4 -1 -11 -6 -5 6 2 -1 -0 -2 -3 -0 1 -0 -2
4 -2 -1 3 3 7 20 11 4 27 -9 4 17 -14 -20 55 4 -10 20 4 9 -2 -0 -6 -5 -3 -6 -1 3 3 -1 -4 -8 -8 0 -0 -2 -2 -0 -1 -0 -2 1
-3 -0 2 -0 1 4 9 11 6 -11 3 6 6 1 -4 -21 -14 -2 -14 12 62 -9 -12 -5 -4 -6 -8 -2 2 1 -0 2 8 -4 -7 1 -1 3 0 2 2 0 -3
-1 2 3 -1 -0 1 -1 6 8 4 8 11 -8 -13 -3 6 1 -0 -1 -8 -20 -9 2 2 6 6 3 1 -5 -3 3 -1 2 1 -1 2 -5 4 -2 0 2 2 1
Height
3147 3149 3151 3152 3153 3154 3156 3157 3158 3159 3161 3162 3163 3165 3167 3169 3171 3173 3175 3177 3178 3178 3178 3178 3178 3179 3178 3178 3178 3178 3178 3178 3178 3177 3177 3176 3176 3175 3174 3174 3173 3172 3171
3147 3148 3150 3151 3153 3154 3156 3157 3158 3160 3161 3162 3164 3166 3168 3171 3172 3175 3177 3178 3179 3179 3180 3180 3180 3180 3180 3180 3180 3180 3180 3180 3180 3179 3178 3178 3178 3177 3176 3175 3174 3174 3172
3145 3147 3148 3150 3152 3154 3155 3157 3158 3159 3161 3162 3165 3168 3170 3172 3173 3175 3178 3179 3180 3181 3181 3181 3182 3182 3181 3181 3181 3182 3182 3182 3181 3181 3180 3180 3179 3178 3177 3177 3176 3175 3174
3143 3146 3147 3149 3151 3153 3155 3157 3159 3159 3161 3163 3166 3169 3171 3172 3174 3176 3178 3179 3181 3182 3183 3183 3183 3183 3183 3183 3183 3184 3184 3184 3183 3183 3182 3182 3181 3180 3179 3178 3177 3176 3175
3141 3144 3146 3148 3150 3153 3155 3157 3158 3160 3162 3164 3167 3169 3172 3173 3175 3177 3178 3180 3182 3183 3184 3184 3184 3184 3185 3185 3185 3185 3185 3185 3185 3184 3183 3183 3182 3181 3181 3180 3179 3178 3176
3139 3142 3145 3147 3149 3152 3155 3157 3159 3161 3162 3164 3167 3169 3172 3174 3176 3178 3180 3181 3183 3184 3185 3186 3186 3187 3187 3187 3187 3187 3187 3186 3186 3185 3184 3184 3183 3183 3182 3181 3180 3179 3177
3137 3140 3143 3146 3149 3151 3154 3157 3159 3161 3164 3165 3167 3170 3172 3175 3177 3179 3181 3183 3184 3185 3186 3187 3188 3188 3188 3188 3188 3188 3188 3188 3187 3186 3185 3184 3184 3183 3182 3181 3180 3179 3178
3136 3138 3142 3145 3148 3151 3154 3156 3159 3162 3164 3167 3169 3171 3173 3175 3178 3180 3181 3183 3184 3186 3187 3187 3188 3188 3189 3189 3189 3189 3188 3188 3188 3187 3186 3185 3184 3183 3182 3181 3180 3179 3178
3134 3138 3141 3144 3148 3151 3154 3157 3159 3162 3165 3167 3170 3172 3174 3176 3179 3181 3183 3184 3185 3187 3187 3188 3189 3189 3189 3189 3189 3189 3188 3188 3187 3187 3186 3185 3184 3183 3182 3182 3180 3179 3178
3133 3137 3140 3143 3147 3151 3153 3156 3159 3162 3165 3168 3171 3174 3176 3177 3179 3182 3184 3186 3187 3188 3189 3189 3190 3189 3189 3189 3189 3188 3187 3187 3187 3186 3186 3185 3184 3183 3182 3181 3180 3179 3178
3132 3135 3138 3143 3146 3150 3153 3156 3159 3162 3165 3168 3171 3174 3177 3179 3181 3183 3184 3186 3187 3188 3188 3189 3189 3189 3189 3189 3188 3188 3187 3187 3186 3185 3185 3184 3184 3183 3182 3180 3179 3178 3177
3130 3134 3136 3140 3145 3150 3153 3156 3159 3162 3165 3168 3171 3175 3177 3179 3181 3183 3184 3185 3186 3187 3187 3188 3188 3188 3188 3188 3187 3187 3186 3185 3184 3184 3183 3183 3182 3181 3180 3179 3178 3176 3175
3128 3131 3134 3138 3143 3148 3153 3156 3159 3163 3166 3168 3171 3174 3177 3179 3181 3183 3184 3185 3186 3187 3187 3187 3187 3187 3186 3186 3185 3185 3184 3183 3182 3182 3181 3181 3180 3179 3178 3177 3176 3174 3173
3126 3130 3133 3138 3143 3147 3150 3156 3160 3162 3165 3168 3171 3173 3176 3178 3180 3182 3183 3184 3185 3186 3186 3186 3186 3186 3185 3185 3184 3183 3182 3181 3180 3180 3179 3178 3178 3177 3176 3175 3174 3172 3170
3126 3128 3131 3139 3142 3146 3149 3151 3157 3161 3164 3167 3170 3172 3174 3177 3178 3180 3181 3182 3184 3184 3184 3185 3185 3185 3184 3183 3182 3181 3180 3179 3179 3178 3177 3176 3175 3173 3172 3172 3171 3169 3168
3121 3129 3135 3139 3145 3148 3149 3149 3152 3156 3161 3165 3168 3170 3172 3174 3176 3178 3179 3180 3181 3181 3182 3182 3183 3183 3182 3182 3181 3179 3178 3177 3176 3175 3174 3173 3172 3171 3169 3168 3166 3166 3165
3121 3125 3131 3142 3147 3149 3149 3148 3150 3154 3158 3162 3165 3167 3169 3171 3172 3174 3175 3177 3177 3177 3178 3179 3180 3180 3179 3179 3178 3177 3176 3175 3174 3172 3171 3170 3169 3167 3166 3165 3163 3161 3160
3117 3122 3128 3136 3143 3142 3145 3146 3145 3150 3155 3158 3162 3165 3166 3168 3170 3171 3172 3173 3174 3175 3175 3175 3176 3176 3176 3176 3175 3174 3173 3172 3171 3169 3168 3166 3165 3163 3161 3160 3159 3156 3155
3116 3123 3128 3135 3137 3136 3138 3144 3143 3148 3153 3156 3160 3161 3163 3164 3165 3166 3167 3168 3169 3170 3170 3171 3172 3172 3172 3171 3171 3171 3170 3169 3168 3167 3165 3162 3161 3159 3157 3155 3153 3152 3150
3115 3122 3128 3131 3133 3133 3137 3141 3143 3147 3150 3150 3154 3156 3157 3158 3159 3160 3162 3163 3164 3165 3165 3166 3167 3168 3167 3167 3166 3166 3165 3165 3163 3162 3160 3158 3156 3154 3152 3150 3148 3147 3145
3114 3119 3122 3127 3129 3132 3134 3137 3139 3141 3143 3144 3148 3150 3152 3152 3153 3154 3156 3157 3158 3158 3160 3160 3162 3162 3162 3161 3161 3161 3161 3159 3158 3157 3155 3154 3151 3148 3146 3145 3143 3141 3139
3110 3115 3116 3121 3121 3123 3126 3129 3133 3137 3139 3142 3141 3144 3146 3146 3146 3148 3149 3150 3152 3153 3154 3155 3155 3157 3157 3156 3155 3153 3154 3155 3153 3151 3150 3148 3146 3142 3140 3139 3137 3136 3134
3106 3111 3114 3116 3115 3120 3124 3126 3125 3130 3132 3132 3133 3129 3136 3137 3140 3142 3143 3144 3145 3147 3149 3149 3149 3150 3151 3150 3150 3148 3146 3146 3144 3145 3142 3141 3138 3136 3134 3133 3132 3130 3128
3103 3106 3109 3111 3113 3115 3118 3121 3123 3124 3125 3130 3129 3129 3131 3124 3133 3134 3133 3135 3135 3135 3136 3139 3142 3143 3143 3143 3144 3144 3141 3139 3136 3134 3136 3134 3132 3129 3127 3125 3124 3123 3122
3099 3102 3106 3108 3111 3113 3114 3116 3119 3120 3123 3124 3125 3126 3128 3128 3130 3131 3132 3127 3122 3126 3132 3135 3137 3137 3138 3139 3139 3137 3136 3134 3130 3125 3124 3128 3125 3122 3119 3118 3116 3115 3114
3095 3099 3102 3103 3107 3109 3111 3113 3115 3116 3117 3117 3120 3121 3124 3124 3124 3127 3127 3126 3126 3127 3130 3130 3131 3133 3133 3133 3133 3131 3129 3127 3124 3121 3115 3114 3116 3116 3112 3111 3109 3107 3106